Location: Marcé
(47.5801°N, 0.3280°W)
Time: 08:47:31
(UTC+01:00)

Vanguard 1 - Pass Details

Date: 02 December 2021
Orbit: 652 x 3830 km, 34.2° (Epoch: 24 January)

Event Time Altitude Azimuth Distance (km) Brightness Sun altitude
Rises 08:01:55 0° 279° (W) 7,442 - -4.9°
Exits shadow 08:02:38 - 278° (W) 7,295 13.9 -4.8°
Reaches altitude 10° 08:09:24 10° 266° (W) 5,892 13.5 -3.8°
Maximum altitude 08:19:30 19° 229° (SW) 4,198 13.1 -2.3°
Drops below altitude 10° 08:26:51 10° 189° (S) 4,091 13.6 -1.3°
Sets 08:30:45 0° 171° (S) 4,601 14.2 -0.7°
